When you browse on this site, cookies collect data to enhance your experience and personalize the content and advertising you see.
Visit our Privacy Policy to learn more. By continuing to use the site, you agree to this use of cookies and data.
  • In Hungary
  • List of Countries
  • For 7 days
  • Water Temperature
  • Weather Map
  • News
  • Weather Widgets
  • user-avatar
    Login

    Hourly Weather Zaroevo

    Today, 25 January, Saturday

    Time Temperature Precipitation Wind Pressure Humidity
    00:00 -1°C° 0.1 mm 5 mps 727 mmHg 93%
    01:00 -1°C° 0.1 mm 4 mps 727 mmHg 92%
    02:00 -1°C° 0.1 mm 4 mps 727 mmHg 91%
    03:00 -1°C° 0 mm 4 mps 727 mmHg 91%
    04:00 -1°C° 0 mm 4 mps 726 mmHg 91%
    05:00 -1°C° 0 mm 4 mps 726 mmHg 91%
    06:00 -1°C° 0.1 mm 4 mps 726 mmHg 89%
    07:00 -1°C° 0.1 mm 5 mps 725 mmHg 86%
    08:00 -1°C° 0.1 mm 5 mps 725 mmHg 84%
    09:00 -2°C° 0.2 mm 6 mps 725 mmHg 81%
    10:00 -2°C° 0.2 mm 7 mps 725 mmHg 79%
    11:00 -2°C° 0.2 mm 8 mps 725 mmHg 76%
    12:00 -2°C° 0.1 mm 7 mps 726 mmHg 73%
    13:00 -3°C° 0.1 mm 7 mps 726 mmHg 69%
    14:00 -3°C° 0.1 mm 6 mps 726 mmHg 66%
    15:00 -3°C° 0 mm 6 mps 727 mmHg 68%
    16:00 -4°C° 0 mm 6 mps 727 mmHg 70%
    17:00 -4°C° 0 mm 6 mps 728 mmHg 72%
    18:00 -5°C° 0 mm 6 mps 729 mmHg 73%
    19:00 -5°C° 0 mm 6 mps 729 mmHg 75%
    20:00 -6°C° 0 mm 7 mps 730 mmHg 77%
    21:00 -5°C° 0 mm 6 mps 730 mmHg 76%
    22:00 -5°C° 0 mm 6 mps 731 mmHg 76%
    23:00 -5°C° 0 mm 5 mps 732 mmHg 75%

    Tomorrow, 26 January, Sunday

    Time Temperature Precipitation Wind Pressure Humidity
    00:00 -5°C° 0 mm 5 mps 733 mmHg 76%
    01:00 -5°C° 0 mm 5 mps 734 mmHg 77%
    02:00 -5°C° 0 mm 4 mps 734 mmHg 78%
    03:00 -5°C° 0 mm 4 mps 735 mmHg 80%
    04:00 -5°C° 0 mm 4 mps 735 mmHg 81%
    05:00 -5°C° 0 mm 3 mps 736 mmHg 82%
    06:00 -5°C° 0 mm 3 mps 736 mmHg 83%
    07:00 -5°C° 0 mm 3 mps 736 mmHg 83%
    08:00 -5°C° 0 mm 3 mps 736 mmHg 84%
    09:00 -4°C° 0.1 mm 3 mps 736 mmHg 85%
    10:00 -4°C° 0.1 mm 4 mps 736 mmHg 86%
    11:00 -4°C° 0.1 mm 4 mps 736 mmHg 87%
    12:00 -3°C° 0.3 mm 4 mps 735 mmHg 88%
    13:00 -4°C° 0.3 mm 5 mps 735 mmHg 89%
    14:00 -4°C° 0.3 mm 6 mps 734 mmHg 90%
    15:00 -3°C° 0.5 mm 6 mps 734 mmHg 92%
    16:00 -2°C° 0.5 mm 6 mps 733 mmHg 93%
    17:00 -1°C° 0.5 mm 6 mps 733 mmHg 95%
    18:00 -1°C° 0.1 mm 6 mps 733 mmHg 94%
    19:00 +1°C° 0.1 mm 6 mps 733 mmHg 93%
    20:00 +1°C° 0.1 mm 6 mps 733 mmHg 91%
    21:00 +1°C° 0 mm 5 mps 733 mmHg 91%
    22:00 +1°C° 0 mm 5 mps 734 mmHg 91%
    23:00 +1°C° 0 mm 5 mps 734 mmHg 90%

    Day after tomorrow, 27 January, Monday

    Time Temperature Precipitation Wind Pressure Humidity
    00:00 +1°C° 0 mm 5 mps 734 mmHg 91%
    01:00 +1°C° 0 mm 5 mps 734 mmHg 92%
    02:00 0°C° 0 mm 4 mps 734 mmHg 93%
    03:00 0°C° 0 mm 4 mps 734 mmHg 94%
    04:00 0°C° 0 mm 4 mps 735 mmHg 95%
    05:00 +1°C° 0 mm 3 mps 735 mmHg 96%
    06:00 +1°C° 0.1 mm 3 mps 735 mmHg 97%
    07:00 +1°C° 0.1 mm 3 mps 735 mmHg 97%
    08:00 +2°C° 0.1 mm 2 mps 735 mmHg 97%
    09:00 +2°C° 0.3 mm 2 mps 735 mmHg 98%
    10:00 +2°C° 0.3 mm 2 mps 736 mmHg 98%
    11:00 +2°C° 0.3 mm 2 mps 736 mmHg 98%
    12:00 +2°C° 0.2 mm 2 mps 736 mmHg 98%
    13:00 +2°C° 0.2 mm 2 mps 736 mmHg 98%
    14:00 +2°C° 0.2 mm 2 mps 735 mmHg 98%
    15:00 +2°C° 0.4 mm 2 mps 735 mmHg 98%
    16:00 +2°C° 0.4 mm 2 mps 735 mmHg 98%
    17:00 +2°C° 0.4 mm 2 mps 735 mmHg 98%
    18:00 +2°C° 0.4 mm 2 mps 735 mmHg 98%
    19:00 +2°C° 0.4 mm 2 mps 735 mmHg 98%
    20:00 +1°C° 0.4 mm 2 mps 735 mmHg 97%
    21:00 +1°C° 0.2 mm 2 mps 735 mmHg 97%
    22:00 +1°C° 0.2 mm 2 mps 735 mmHg 97%
    23:00 +1°C° 0.2 mm 2 mps 735 mmHg 97%

    28 January, Tuesday

    Time Temperature Precipitation Wind Pressure Humidity
    00:00 +1°C° 0.1 mm 2 mps 734 mmHg 98%
    01:00 +1°C° 0.1 mm 2 mps 734 mmHg 98%
    02:00 +1°C° 0.1 mm 2 mps 734 mmHg 98%
    03:00 +1°C° 0.2 mm 2 mps 733 mmHg 98%
    04:00 +1°C° 0.2 mm 1 mps 733 mmHg 98%
    05:00 +1°C° 0.2 mm 1 mps 733 mmHg 98%
    06:00 +1°C° 0.1 mm 1 mps 733 mmHg 98%
    07:00 +1°C° 0.1 mm 1 mps 733 mmHg 98%
    08:00 +1°C° 0.1 mm 1 mps 733 mmHg 98%
    09:00 +1°C° 0.1 mm 1 mps 733 mmHg 98%
    10:00 +1°C° 0.1 mm 1 mps 733 mmHg 98%
    11:00 +1°C° 0.1 mm 1 mps 733 mmHg 97%
    12:00 +1°C° 0 mm 1 mps 733 mmHg 97%
    13:00 +1°C° 0 mm 1 mps 732 mmHg 96%
    14:00 +2°C° 0 mm 1 mps 732 mmHg 96%
    15:00 +1°C° 0 mm 1 mps 732 mmHg 96%
    16:00 +1°C° 0 mm 1 mps 732 mmHg 96%
    17:00 +1°C° 0 mm 1 mps 732 mmHg 96%
    18:00 +1°C° 0 mm 1 mps 732 mmHg 95%
    19:00 +1°C° 0 mm 1 mps 732 mmHg 94%
    20:00 +1°C° 0 mm 1 mps 732 mmHg 93%
    21:00 -1°C° 0 mm 2 mps 732 mmHg 93%
    22:00 -1°C° 0 mm 2 mps 732 mmHg 93%
    23:00 -1°C° 0 mm 2 mps 732 mmHg 93%

    29 January, Wednesday

    Time Temperature Precipitation Wind Pressure Humidity
    00:00 -1°C° 0 mm 2 mps 731 mmHg 94%
    01:00 -1°C° 0 mm 2 mps 731 mmHg 95%
    02:00 -1°C° 0 mm 2 mps 731 mmHg 96%
    03:00 -1°C° 0 mm 2 mps 730 mmHg 96%
    04:00 0°C° 0 mm 3 mps 730 mmHg 96%
    05:00 0°C° 0 mm 3 mps 730 mmHg 96%
    06:00 0°C° 0 mm 3 mps 730 mmHg 95%
    07:00 -1°C° 0 mm 4 mps 729 mmHg 95%
    08:00 -2°C° 0 mm 4 mps 729 mmHg 94%
    09:00 -1°C° 0 mm 4 mps 729 mmHg 93%
    10:00 -1°C° 0 mm 4 mps 729 mmHg 92%
    11:00 -1°C° 0 mm 4 mps 728 mmHg 92%
    12:00 -1°C° 0.1 mm 4 mps 728 mmHg 93%
    13:00 -1°C° 0.1 mm 4 mps 727 mmHg 95%
    14:00 -1°C° 0.1 mm 5 mps 727 mmHg 96%
    15:00 0°C° 0.1 mm 4 mps 727 mmHg 96%
    16:00 0°C° 0.1 mm 4 mps 726 mmHg 95%
    17:00 0°C° 0.1 mm 4 mps 726 mmHg 95%
    18:00 0°C° 0.1 mm 4 mps 726 mmHg 96%
    19:00 0°C° 0.1 mm 4 mps 725 mmHg 96%
    20:00 0°C° 0.1 mm 4 mps 725 mmHg 96%
    21:00 0°C° 0.2 mm 4 mps 725 mmHg 96%
    22:00 0°C° 0.2 mm 4 mps 724 mmHg 96%
    23:00 0°C° 0.2 mm 4 mps 724 mmHg 96%

    30 January, Thursday

    Time Temperature Precipitation Wind Pressure Humidity
    00:00 0°C° 0.5 mm 4 mps 724 mmHg 97%
    01:00 0°C° 0.5 mm 3 mps 723 mmHg 97%
    02:00 0°C° 0.5 mm 3 mps 723 mmHg 97%
    03:00 0°C° 0.5 mm 3 mps 723 mmHg 97%
    04:00 -1°C° 0.5 mm 3 mps 723 mmHg 97%
    05:00 -1°C° 0.5 mm 3 mps 723 mmHg 97%
    06:00 -1°C° 0.2 mm 3 mps 723 mmHg 94%
    07:00 -1°C° 0.2 mm 3 mps 724 mmHg 92%
    08:00 -1°C° 0.2 mm 3 mps 724 mmHg 90%
    09:00 -1°C° 0 mm 3 mps 724 mmHg 89%
    10:00 -1°C° 0 mm 3 mps 724 mmHg 87%
    11:00 -1°C° 0 mm 3 mps 724 mmHg 86%
    12:00 -1°C° 0 mm 3 mps 725 mmHg 85%
    13:00 -1°C° 0 mm 3 mps 725 mmHg 84%
    14:00 -1°C° 0 mm 3 mps 725 mmHg 83%
    15:00 -2°C° 0 mm 2 mps 725 mmHg 84%
    16:00 -2°C° 0 mm 2 mps 725 mmHg 84%
    17:00 -2°C° 0 mm 2 mps 725 mmHg 85%
    18:00 -2°C° 0 mm 2 mps 726 mmHg 85%
    19:00 0°C° 0 mm 1 mps 726 mmHg 85%
    20:00 0°C° 0 mm 1 mps 726 mmHg 85%
    21:00 0°C° 0 mm 1 mps 726 mmHg 87%
    22:00 0°C° 0 mm 1 mps 726 mmHg 88%
    23:00 0°C° 0 mm 1 mps 726 mmHg 90%
    Show more